Location: Newark
(25.0000°N, 73.5000°E)
Time: 17:02:42
(UTC+00:00)

Tiangong - Pass Details

Date: 01 July 2021
Orbit: 373 x 386 km, 41.5° (Epoch: 02 August)

Event Time Altitude Azimuth Distance (km) Brightness Sun altitude
Rises 14:44:34 0° 211° (SSW) 2,211 4.9 -9.7°
Reaches altitude 10° 14:46:48 10° 198° (SSW) 1,363 3.7 -10.2°
Maximum altitude 14:49:26 26° 139° (SE) 777 2.0 -10.7°
Enters shadow 14:51:31 13° 87° (E) 1,180 3.0 -11.1°
